Погода в Молвотицах

Россия / Новгородская область     57°24′36″N   32°19′49″E
темп.,
°C
ветер,
м/с
пор.,
м/с
влажн.,
%
обл.,
%
осадки,
мм/ч
давл.,
гПа
погр.,
м
29 мая, вс
вс2900:00+6юз269783 0.0 1003123
03:00+4юз269844 0.0 1004138
06:00+6ююз379396 0.0 1005235
09:00+11зюз4667100 0.0 1006811
12:00+13зюз4561100 0.8 10081559
15:00+14зюз4665100 2.1 10091406
18:00+12зюз3778100 1.1 1011671
21:00+9ююз228760 1.6 101235
30 мая, пн
пн3000:00+6ююз24905 0.0 101475
03:00+5ююз26923 0.0 1016102
06:00+7ююз25932 0.0 1017158
09:00+13ююз24654 0.0 1017800
12:00+17юз344993 0.1 10171910
15:00+18ю2446100 0.1 10162046
18:00+15ю3675100 0.2 1016313
21:00+12ююв2793100 1.3 1017146
31 мая, вт
вт3100:00+9вюв3796100 0.0 1016156
03:00+11вюв41294100 0.3 1015537
06:00+11юв51295100 1.1 1014637
09:00+11ююв489587 1.4 1015543
12:00+14ю4678100 0.1 10151098
15:00+20ююз3642100 0.1 10142153
18:00+18зюз3555100 0.0 1015892
21:00+13ю227494 0.0 101724
1 июня, ср
ср100:00+9ю22853 0.0 101735
03:00+7ююз23970 0.0 101945
06:00+9ююз13900 0.0 102098
09:00+15юз23593 0.0 1020715
12:00+19юз254655 0.0 10201953
15:00+21ююз353891 0.0 10192447
18:00+21ююз354493 0.0 10182067
21:00+15ююв2266100 0.0 101811
2 июня, чт
чт200:00+15ююв3868100 0.0 1017193
03:00+13юв41179100 0.0 1016284
06:00+12ю31092100 0.8 1015509
09:00+14ю5119256 1.8 1013916
12:00+16ю497559 0.4 10131295
15:00+20юз57460 0.4 10131692
18:00+18юз46524 0.0 10131304
21:00+12вюв119745 1.6 101331